Terug naar catalogus

STARLINK-3867

ActiefCommunicatieVLEO
NORAD 52587·PAYLOAD·🇺🇸 United States

Gelanceerd May 13, 2022 vanaf Vandenberg Space Force Base

Loading…

Volgende Passages (komende 24 uur)

TLE

VersSource: CelesTrak SupGP

Epoch: Sep 14, 2026, 20:46 UTC

1 52587C 22051BD  26257.86576389 -.00033151  00000+0 -10662-2 0  2579
2 52587  53.1582 336.0866 0001170  81.2019 334.3658 15.31712797    11

Volg STARLINK-3867 in realtime met AllMySat

Download on the App Store